﻿測定場所 (Monitoring sites),日付 (Measurement date),時間 (Measurement time),線量率 最大値 (max) μGy/h,線量率 最小値 (min) μGy/h,線量率 平均値 (average) μGy/h,
江戸川 (Edogawa),2022-10-09,23:01～24:00,0.0520,0.0430,0.0473,
江戸川 (Edogawa),2022-10-09,22:01～23:00,0.0513,0.0431,0.0472,
江戸川 (Edogawa),2022-10-09,21:01～22:00,0.0469,0.0402,0.0425,
江戸川 (Edogawa),2022-10-09,20:01～21:00,0.0456,0.0392,0.0423,
江戸川 (Edogawa),2022-10-09,19:01～20:00,0.0521,0.0408,0.0460,
江戸川 (Edogawa),2022-10-09,18:01～19:00,0.0530,0.0469,0.0496,
江戸川 (Edogawa),2022-10-09,17:01～18:00,0.0522,0.0429,0.0476,
江戸川 (Edogawa),2022-10-09,16:01～17:00,0.0474,0.0368,0.0423,
江戸川 (Edogawa),2022-10-09,15:01～16:00,0.0412,0.0362,0.0384,
江戸川 (Edogawa),2022-10-09,14:01～15:00,0.0421,0.0362,0.0391,
江戸川 (Edogawa),2022-10-09,13:01～14:00,0.0426,0.0362,0.0389,
江戸川 (Edogawa),2022-10-09,12:01～13:00,0.0409,0.0363,0.0383,
江戸川 (Edogawa),2022-10-09,11:01～12:00,0.0414,0.0369,0.0392,
江戸川 (Edogawa),2022-10-09,10:01～11:00,0.0427,0.0364,0.0394,
江戸川 (Edogawa),2022-10-09,09:01～10:00,0.0432,0.0361,0.0394,
江戸川 (Edogawa),2022-10-09,08:01～09:00,0.0414,0.0363,0.0391,
江戸川 (Edogawa),2022-10-09,07:01～08:00,0.0427,0.0365,0.0394,
江戸川 (Edogawa),2022-10-09,06:01～07:00,0.0416,0.0365,0.0393,
江戸川 (Edogawa),2022-10-09,05:01～06:00,0.0425,0.0365,0.0396,
江戸川 (Edogawa),2022-10-09,04:01～05:00,0.0429,0.0367,0.0393,
江戸川 (Edogawa),2022-10-09,03:01～04:00,0.0422,0.0366,0.0394,
江戸川 (Edogawa),2022-10-09,02:01～03:00,0.0441,0.0367,0.0394,
江戸川 (Edogawa),2022-10-09,01:01～02:00,0.0423,0.0366,0.0392,
江戸川 (Edogawa),2022-10-09,00:01～01:00,0.0433,0.0371,0.0395,
江戸川 (Edogawa),2022-10-08,23:01～24:00,0.0415,0.0361,0.0392,
江戸川 (Edogawa),2022-10-08,22:01～23:00,0.0420,0.0371,0.0394,
江戸川 (Edogawa),2022-10-08,21:01～22:00,0.0423,0.0364,0.0394,
江戸川 (Edogawa),2022-10-08,20:01～21:00,0.0444,0.0365,0.0397,
江戸川 (Edogawa),2022-10-08,19:01～20:00,0.0421,0.0368,0.0393,
江戸川 (Edogawa),2022-10-08,18:01～19:00,0.0437,0.0365,0.0396,
江戸川 (Edogawa),2022-10-08,17:01～18:00,0.0419,0.0368,0.0393,
江戸川 (Edogawa),2022-10-08,16:01～17:00,0.0433,0.0368,0.0392,
江戸川 (Edogawa),2022-10-08,15:01～16:00,0.0432,0.0364,0.0395,
江戸川 (Edogawa),2022-10-08,14:01～15:00,0.0416,0.0368,0.0393,
江戸川 (Edogawa),2022-10-08,13:01～14:00,0.0427,0.0363,0.0396,
江戸川 (Edogawa),2022-10-08,12:01～13:00,0.0430,0.0363,0.0399,
江戸川 (Edogawa),2022-10-08,11:01～12:00,0.0426,0.0382,0.0402,
江戸川 (Edogawa),2022-10-08,10:01～11:00,0.0420,0.0365,0.0394,
江戸川 (Edogawa),2022-10-08,09:01～10:00,0.0424,0.0363,0.0386,
江戸川 (Edogawa),2022-10-08,08:01～09:00,0.0420,0.0364,0.0389,
江戸川 (Edogawa),2022-10-08,07:01～08:00,0.0421,0.0365,0.0389,
江戸川 (Edogawa),2022-10-08,06:01～07:00,0.0419,0.0367,0.0392,
江戸川 (Edogawa),2022-10-08,05:01～06:00,0.0418,0.0366,0.0395,
江戸川 (Edogawa),2022-10-08,04:01～05:00,0.0421,0.0362,0.0391,
江戸川 (Edogawa),2022-10-08,03:01～04:00,0.0417,0.0363,0.0393,
江戸川 (Edogawa),2022-10-08,02:01～03:00,0.0419,0.0365,0.0393,
江戸川 (Edogawa),2022-10-08,01:01～02:00,0.0420,0.0367,0.0392,
江戸川 (Edogawa),2022-10-08,00:01～01:00,0.0439,0.0370,0.0402,
江戸川 (Edogawa),2022-10-07,23:01～24:00,0.0461,0.0386,0.0425,
江戸川 (Edogawa),2022-10-07,22:01～23:00,0.0517,0.0420,0.0469,
江戸川 (Edogawa),2022-10-07,21:01～22:00,0.0515,0.0400,0.0459,
江戸川 (Edogawa),2022-10-07,20:01～21:00,0.0453,0.0369,0.0411,
江戸川 (Edogawa),2022-10-07,19:01～20:00,0.0567,0.0413,0.0486,
江戸川 (Edogawa),2022-10-07,18:01～19:00,0.0686,0.0535,0.0596,
江戸川 (Edogawa),2022-10-07,17:01～18:00,0.0710,0.0603,0.0668,
江戸川 (Edogawa),2022-10-07,16:01～17:00,0.0727,0.0615,0.0671,
江戸川 (Edogawa),2022-10-07,15:01～16:00,0.0679,0.0602,0.0631,
江戸川 (Edogawa),2022-10-07,14:01～15:00,0.0680,0.0573,0.0625,
江戸川 (Edogawa),2022-10-07,13:01～14:00,0.0656,0.0572,0.0617,
江戸川 (Edogawa),2022-10-07,12:01～13:00,0.0636,0.0511,0.0579,
江戸川 (Edogawa),2022-10-07,11:01～12:00,0.0559,0.0476,0.0515,
江戸川 (Edogawa),2022-10-07,10:01～11:00,0.0576,0.0487,0.0526,
江戸川 (Edogawa),2022-10-07,09:01～10:00,0.0589,0.0509,0.0535,
江戸川 (Edogawa),2022-10-07,08:01～09:00,0.0562,0.0424,0.0502,
江戸川 (Edogawa),2022-10-07,07:01～08:00,0.0470,0.0373,0.0414,
江戸川 (Edogawa),2022-10-07,06:01～07:00,0.0430,0.0377,0.0403,
江戸川 (Edogawa),2022-10-07,05:01～06:00,0.0432,0.0373,0.0405,
江戸川 (Edogawa),2022-10-07,04:01～05:00,0.0438,0.0373,0.0404,
江戸川 (Edogawa),2022-10-07,03:01～04:00,0.0426,0.0370,0.0402,
江戸川 (Edogawa),2022-10-07,02:01～03:00,0.0440,0.0369,0.0402,
江戸川 (Edogawa),2022-10-07,01:01～02:00,0.0429,0.0366,0.0401,
江戸川 (Edogawa),2022-10-07,00:01～01:00,0.0429,0.0372,0.0403,
江戸川 (Edogawa),2022-10-06,23:01～24:00,0.0439,0.0370,0.0400,
江戸川 (Edogawa),2022-10-06,22:01～23:00,0.0430,0.0366,0.0398,
江戸川 (Edogawa),2022-10-06,21:01～22:00,0.0430,0.0369,0.0397,
江戸川 (Edogawa),2022-10-06,20:01～21:00,0.0424,0.0371,0.0397,
江戸川 (Edogawa),2022-10-06,19:01～20:00,0.0436,0.0368,0.0398,
江戸川 (Edogawa),2022-10-06,18:01～19:00,0.0452,0.0378,0.0408,
江戸川 (Edogawa),2022-10-06,17:01～18:00,0.0484,0.0394,0.0438,
江戸川 (Edogawa),2022-10-06,16:01～17:00,0.0568,0.0454,0.0515,
江戸川 (Edogawa),2022-10-06,15:01～16:00,0.0616,0.0522,0.0572,
江戸川 (Edogawa),2022-10-06,14:01～15:00,0.0643,0.0570,0.0606,
江戸川 (Edogawa),2022-10-06,13:01～14:00,0.0610,0.0494,0.0542,
江戸川 (Edogawa),2022-10-06,12:01～13:00,0.0527,0.0467,0.0496,
江戸川 (Edogawa),2022-10-06,11:01～12:00,0.0557,0.0474,0.0510,
江戸川 (Edogawa),2022-10-06,10:01～11:00,0.0485,0.0408,0.0447,
江戸川 (Edogawa),2022-10-06,09:01～10:00,0.0509,0.0435,0.0465,
江戸川 (Edogawa),2022-10-06,08:01～09:00,0.0552,0.0459,0.0512,
江戸川 (Edogawa),2022-10-06,07:01～08:00,0.0537,0.0411,0.0491,
江戸川 (Edogawa),2022-10-06,06:01～07:00,0.0434,0.0387,0.0410,
江戸川 (Edogawa),2022-10-06,05:01～06:00,0.0435,0.0377,0.0404,
江戸川 (Edogawa),2022-10-06,04:01～05:00,0.0429,0.0381,0.0402,
江戸川 (Edogawa),2022-10-06,03:01～04:00,0.0447,0.0383,0.0410,
江戸川 (Edogawa),2022-10-06,02:01～03:00,0.0440,0.0385,0.0414,
江戸川 (Edogawa),2022-10-06,01:01～02:00,0.0496,0.0406,0.0443,
江戸川 (Edogawa),2022-10-06,00:01～01:00,0.0547,0.0459,0.0495,
江戸川 (Edogawa),2022-10-05,23:01～24:00,0.0614,0.0487,0.0544,
江戸川 (Edogawa),2022-10-05,22:01～23:00,0.0568,0.0499,0.0535,
江戸川 (Edogawa),2022-10-05,21:01～22:00,0.0545,0.0448,0.0496,
江戸川 (Edogawa),2022-10-05,20:01～21:00,0.0519,0.0434,0.0486,
江戸川 (Edogawa),2022-10-05,19:01～20:00,0.0582,0.0492,0.0544,
江戸川 (Edogawa),2022-10-05,18:01～19:00,0.0554,0.0439,0.0495,
江戸川 (Edogawa),2022-10-05,17:01～18:00,0.0494,0.0405,0.0438,
江戸川 (Edogawa),2022-10-05,16:01～17:00,0.0471,0.0393,0.0433,
江戸川 (Edogawa),2022-10-05,15:01～16:00,0.0495,0.0402,0.0448,
江戸川 (Edogawa),2022-10-05,14:01～15:00,0.0522,0.0437,0.0486,
江戸川 (Edogawa),2022-10-05,13:01～14:00,0.0602,0.0501,0.0543,
江戸川 (Edogawa),2022-10-05,12:01～13:00,0.0574,0.0471,0.0519,
江戸川 (Edogawa),2022-10-05,11:01～12:00,0.0569,0.0412,0.0495,
江戸川 (Edogawa),2022-10-05,10:01～11:00,0.0462,0.0408,0.0432,
江戸川 (Edogawa),2022-10-05,09:01～10:00,0.0487,0.0400,0.0437,
江戸川 (Edogawa),2022-10-05,08:01～09:00,0.0471,0.0405,0.0443,
江戸川 (Edogawa),2022-10-05,07:01～08:00,0.0473,0.0399,0.0442,
江戸川 (Edogawa),2022-10-05,06:01～07:00,0.0455,0.0398,0.0427,
江戸川 (Edogawa),2022-10-05,05:01～06:00,0.0453,0.0394,0.0421,
江戸川 (Edogawa),2022-10-05,04:01～05:00,0.0445,0.0393,0.0418,
江戸川 (Edogawa),2022-10-05,03:01～04:00,0.0442,0.0397,0.0416,
江戸川 (Edogawa),2022-10-05,02:01～03:00,0.0447,0.0383,0.0412,
江戸川 (Edogawa),2022-10-05,01:01～02:00,0.0449,0.0380,0.0412,
江戸川 (Edogawa),2022-10-05,00:01～01:00,0.0439,0.0373,0.0412,
江戸川 (Edogawa),2022-10-04,23:01～24:00,0.0437,0.0389,0.0414,
江戸川 (Edogawa),2022-10-04,22:01～23:00,0.0449,0.0382,0.0410,
江戸川 (Edogawa),2022-10-04,21:01～22:00,0.0447,0.0381,0.0411,
江戸川 (Edogawa),2022-10-04,20:01～21:00,0.0443,0.0389,0.0411,
江戸川 (Edogawa),2022-10-04,19:01～20:00,0.0436,0.0377,0.0408,
江戸川 (Edogawa),2022-10-04,18:01～19:00,0.0442,0.0383,0.0409,
江戸川 (Edogawa),2022-10-04,17:01～18:00,0.0445,0.0370,0.0407,
江戸川 (Edogawa),2022-10-04,16:01～17:00,0.0449,0.0379,0.0409,
江戸川 (Edogawa),2022-10-04,15:01～16:00,0.0446,0.0379,0.0410,
江戸川 (Edogawa),2022-10-04,14:01～15:00,0.0434,0.0369,0.0408,
江戸川 (Edogawa),2022-10-04,13:01～14:00,0.0448,0.0383,0.0410,
江戸川 (Edogawa),2022-10-04,12:01～13:00,0.0437,0.0377,0.0409,
江戸川 (Edogawa),2022-10-04,11:01～12:00,0.0443,0.0370,0.0406,
江戸川 (Edogawa),2022-10-04,10:01～11:00,0.0447,0.0377,0.0405,
江戸川 (Edogawa),2022-10-04,09:01～10:00,0.0429,0.0376,0.0404,
江戸川 (Edogawa),2022-10-04,08:01～09:00,0.0431,0.0384,0.0408,
江戸川 (Edogawa),2022-10-04,07:01～08:00,0.0438,0.0379,0.0406,
江戸川 (Edogawa),2022-10-04,06:01～07:00,0.0444,0.0389,0.0410,
江戸川 (Edogawa),2022-10-04,05:01～06:00,0.0439,0.0384,0.0412,
江戸川 (Edogawa),2022-10-04,04:01～05:00,0.0434,0.0386,0.0412,
江戸川 (Edogawa),2022-10-04,03:01～04:00,0.0441,0.0377,0.0412,
江戸川 (Edogawa),2022-10-04,02:01～03:00,0.0464,0.0369,0.0414,
江戸川 (Edogawa),2022-10-04,01:01～02:00,0.0447,0.0383,0.0412,
江戸川 (Edogawa),2022-10-04,00:01～01:00,0.0448,0.0366,0.0413,
江戸川 (Edogawa),2022-10-03,23:01～24:00,0.0448,0.0374,0.0414,
江戸川 (Edogawa),2022-10-03,22:01～23:00,0.0451,0.0369,0.0410,
江戸川 (Edogawa),2022-10-03,21:01～22:00,0.0446,0.0367,0.0412,
江戸川 (Edogawa),2022-10-03,20:01～21:00,0.0443,0.0384,0.0410,
江戸川 (Edogawa),2022-10-03,19:01～20:00,0.0440,0.0385,0.0410,
江戸川 (Edogawa),2022-10-03,18:01～19:00,0.0438,0.0376,0.0406,
江戸川 (Edogawa),2022-10-03,17:01～18:00,0.0435,0.0378,0.0409,
江戸川 (Edogawa),2022-10-03,16:01～17:00,0.0434,0.0380,0.0407,
江戸川 (Edogawa),2022-10-03,15:01～16:00,0.0441,0.0381,0.0411,
江戸川 (Edogawa),2022-10-03,14:01～15:00,0.0434,0.0384,0.0407,
江戸川 (Edogawa),2022-10-03,13:01～14:00,0.0460,0.0381,0.0407,
江戸川 (Edogawa),2022-10-03,12:01～13:00,0.0437,0.0369,0.0407,
江戸川 (Edogawa),2022-10-03,11:01～12:00,0.0450,0.0379,0.0413,
江戸川 (Edogawa),2022-10-03,10:01～11:00,0.0443,0.0377,0.0414,
江戸川 (Edogawa),2022-10-03,09:01～10:00,0.0447,0.0381,0.0413,
江戸川 (Edogawa),2022-10-03,08:01～09:00,0.0439,0.0384,0.0411,
江戸川 (Edogawa),2022-10-03,07:01～08:00,0.0445,0.0392,0.0415,
江戸川 (Edogawa),2022-10-03,06:01～07:00,0.0440,0.0375,0.0410,
江戸川 (Edogawa),2022-10-03,05:01～06:00,0.0448,0.0395,0.0419,
江戸川 (Edogawa),2022-10-03,04:01～05:00,0.0434,0.0397,0.0417,
江戸川 (Edogawa),2022-10-03,03:01～04:00,0.0445,0.0383,0.0412,
江戸川 (Edogawa),2022-10-03,02:01～03:00,0.0445,0.0381,0.0416,
江戸川 (Edogawa),2022-10-03,01:01～02:00,0.0446,0.0378,0.0412,
江戸川 (Edogawa),2022-10-03,00:01～01:00,0.0441,0.0381,0.0408,
